| time (UTC) | temp C | wind direction | speed KPH | gust KPH | rain 1hr cm | rain 24hr cm | rain mn cm | humidity % | barometer mb |
| 20260508063410 | 6 | 0.0 | 1.6 | 0.00 | 0.00 | 0.00 | 80 | 1015.3 | |
| 20260508062909 | 6 | 0.0 | 1.6 | 0.00 | 0.00 | 0.00 | 80 | 1015.3 | |
| 20260508062349 | 6 | 135 | 1.6 | 1.6 | 0.00 | 0.00 | 0.00 | 80 | 1015.3 |
| 20260508061846 | 6 | 135 | 1.6 | 1.6 | 0.00 | 0.00 | 0.00 | 80 | 1015.3 |
| 20260508061411 | 6 | 185 | 1.6 | 1.6 | 0.00 | 0.00 | 0.00 | 80 | 1015.4 |
| 20260508060847 | 6 | 185 | 1.6 | 1.6 | 0.00 | 0.00 | 0.00 | 80 | 1015.4 |
| 20260508060344 | 6 | 194 | 1.6 | 1.6 | 0.00 | 0.00 | 0.00 | 80 | 1015.3 |
| 20260508055842 | 6 | 194 | 1.6 | 1.6 | 0.00 | 0.00 | 0.00 | 80 | 1015.3 |
| 20260508055343 | 7 | 0.0 | 1.6 | 0.00 | 0.00 | 0.00 | 79 | 1015.2 | |
| 20260508054841 | 7 | 0.0 | 1.6 | 0.00 | 0.00 | 0.00 | 79 | 1015.2 | |
| 20260508054341 | 7 | 180 | 1.6 | 1.6 | 0.00 | 0.00 | 0.00 | 79 | 1015.1 |
| 20260508053838 | 7 | 180 | 1.6 | 1.6 | 0.00 | 0.00 | 0.00 | 79 | 1015.1 |
| 20260508053337 | 7 | 0.0 | 1.6 | 0.00 | 0.00 | 0.00 | 79 | 1014.9 | |
| 20260508052839 | 7 | 0.0 | 1.6 | 0.00 | 0.00 | 0.00 | 79 | 1014.9 | |
| 20260508052336 | 7 | 0.0 | 1.6 | 0.00 | 0.00 | 0.00 | 79 | 1014.8 | |
| 20260508051836 | 7 | 0.0 | 1.6 | 0.00 | 0.00 | 0.00 | 79 | 1014.8 | |
| 20260508051334 | 7 | 185 | 1.6 | 1.6 | 0.00 | 0.00 | 0.00 | 78 | 1014.7 |
| 20260508050833 | 7 | 185 | 1.6 | 1.6 | 0.00 | 0.00 | 0.00 | 78 | 1014.7 |
| 20260508050331 | 7 | 185 | 1.6 | 1.6 | 0.00 | 0.00 | 0.00 | 78 | 1014.7 |
| 20260508045832 | 7 | 0.0 | 1.6 | 0.00 | 0.00 | 0.00 | 78 | 1014.6 | |
| 20260508045332 | 7 | 0.0 | 1.6 | 0.00 | 0.00 | 0.00 | 78 | 1014.6 | |
| 20260508044829 | 8 | 0.0 | 1.6 | 0.00 | 0.00 | 0.00 | 77 | 1014.5 | |
| 20260508044330 | 8 | 0.0 | 1.6 | 0.00 | 0.00 | 0.00 | 77 | 1014.5 | |
| 20260508043827 | 8 | 0.0 | 1.6 | 0.00 | 0.00 | 0.00 | 77 | 1014.4 | |
| 20260508043328 | 8 | 0.0 | 1.6 | 0.00 | 0.00 | 0.00 | 77 | 1014.4 | |
| 20260508042826 | 8 | 0.0 | 1.6 | 0.00 | 0.00 | 0.00 | 76 | 1014.3 | |
| 20260508042324 | 8 | 0.0 | 1.6 | 0.00 | 0.00 | 0.00 | 76 | 1014.3 | |
| 20260508041824 | 8 | 0.0 | 1.6 | 0.00 | 0.00 | 0.00 | 75 | 1014.4 | |
| 20260508041322 | 8 | 0.0 | 1.6 | 0.00 | 0.00 | 0.00 | 75 | 1014.4 | |
| 20260508040823 | 9 | 180 | 1.6 | 1.6 | 0.00 | 0.00 | 0.00 | 74 | 1014.2 |
| 20260508040323 | 9 | 180 | 1.6 | 1.6 | 0.00 | 0.00 | 0.00 | 74 | 1014.2 |
| 20260508035820 | 9 | 195 | 1.6 | 1.6 | 0.00 | 0.00 | 0.00 | 73 | 1014.0 |
| 20260508035318 | 9 | 195 | 1.6 | 1.6 | 0.00 | 0.00 | 0.00 | 73 | 1014.0 |
| 20260508034817 | 10 | 0.0 | 1.6 | 0.00 | 0.00 | 0.00 | 71 | 1014.1 | |
| 20260508034317 | 10 | 0.0 | 1.6 | 0.00 | 0.00 | 0.00 | 71 | 1014.1 | |
| 20260508033836 | 10 | 0.0 | 1.6 | 0.00 | 0.00 | 0.00 | 70 | 1014.0 | |
| 20260508033335 | 10 | 0.0 | 1.6 | 0.00 | 0.00 | 0.00 | 70 | 1014.0 | |
| 20260508032812 | 11 | 0.0 | 1.6 | 0.00 | 0.00 | 0.00 | 68 | 1013.9 | |
| 20260508032313 | 11 | 0.0 | 1.6 | 0.00 | 0.00 | 0.00 | 68 | 1013.9 | |
| 20260508031831 | 12 | 218 | 1.6 | 1.6 | 0.00 | 0.00 | 0.00 | 65 | 1013.9 |
| 20260508031311 | 12 | 218 | 1.6 | 1.6 | 0.00 | 0.00 | 0.00 | 65 | 1013.9 |
| 20260508030809 | 12 | 270 | 1.6 | 3.2 | 0.00 | 0.00 | 0.00 | 64 | 1013.8 |
| 20260508025807 | 12 | 308 | 1.6 | 1.6 | 0.00 | 0.00 | 0.00 | 62 | 1013.6 |
| 20260508025306 | 12 | 308 | 1.6 | 1.6 | 0.00 | 0.00 | 0.00 | 62 | 1013.6 |
| 20260508024806 | 12 | 324 | 1.6 | 1.6 | 0.00 | 0.00 | 0.00 | 62 | 1013.5 |
| 20260508024304 | 12 | 324 | 1.6 | 1.6 | 0.00 | 0.00 | 0.00 | 62 | 1013.5 |
| 20260508023803 | 12 | 315 | 1.6 | 3.2 | 0.00 | 0.00 | 0.00 | 63 | 1013.6 |
| 20260508023325 | 12 | 315 | 1.6 | 3.2 | 0.00 | 0.00 | 0.00 | 63 | 1013.6 |
| 20260508022802 | 12 | 325 | 1.6 | 1.6 | 0.00 | 0.00 | 0.00 | 63 | 1013.2 |
| 20260508022301 | 12 | 325 | 1.6 | 1.6 | 0.00 | 0.00 | 0.00 | 63 | 1013.2 |
| 20260508021759 | 12 | 0.0 | 1.6 | 0.00 | 0.00 | 0.00 | 63 | 1013.0 | |
| 20260508021342 | 12 | 0.0 | 1.6 | 0.00 | 0.00 | 0.00 | 63 | 1013.0 | |
| 20260508020757 | 13 | 315 | 1.6 | 3.2 | 0.00 | 0.00 | 0.00 | 62 | 1012.9 |
| 20260508020256 | 13 | 315 | 1.6 | 3.2 | 0.00 | 0.00 | 0.00 | 62 | 1012.9 |
| 20260508015755 | 13 | 307 | 1.6 | 1.6 | 0.00 | 0.00 | 0.00 | 62 | 1012.7 |
| 20260508015256 | 13 | 307 | 1.6 | 1.6 | 0.00 | 0.00 | 0.00 | 62 | 1012.7 |
| 20260508014754 | 13 | 315 | 1.6 | 3.2 | 0.00 | 0.00 | 0.00 | 61 | 1012.6 |
| 20260508014252 | 13 | 315 | 1.6 | 3.2 | 0.00 | 0.00 | 0.00 | 61 | 1012.6 |
| 20260508013751 | 13 | 319 | 1.6 | 3.2 | 0.00 | 0.00 | 0.00 | 61 | 1012.3 |
| 20260508013251 | 13 | 319 | 1.6 | 3.2 | 0.00 | 0.00 | 0.00 | 61 | 1012.3 |
| 20260508012750 | 13 | 315 | 1.6 | 1.6 | 0.00 | 0.00 | 0.00 | 62 | 1012.2 |
| 20260508012247 | 13 | 315 | 1.6 | 1.6 | 0.00 | 0.00 | 0.00 | 62 | 1012.2 |
| 20260508011747 | 13 | 329 | 1.6 | 1.6 | 0.00 | 0.00 | 0.00 | 61 | 1012.0 |
| 20260508011246 | 13 | 329 | 1.6 | 1.6 | 0.00 | 0.00 | 0.00 | 61 | 1012.0 |
| 20260508010806 | 13 | 315 | 1.6 | 3.2 | 0.00 | 0.00 | 0.00 | 62 | 1011.9 |
| 20260508010244 | 13 | 315 | 1.6 | 3.2 | 0.00 | 0.00 | 0.00 | 62 | 1011.9 |
| 20260508005746 | 13 | 320 | 1.6 | 1.6 | 0.00 | 0.00 | 0.00 | 62 | 1011.9 |
| 20260508005241 | 13 | 320 | 1.6 | 1.6 | 0.00 | 0.00 | 0.00 | 62 | 1011.9 |
| 20260508004740 | 13 | 309 | 1.6 | 1.6 | 0.00 | 0.00 | 0.00 | 62 | 1011.9 |
| 20260508004241 | 13 | 309 | 1.6 | 1.6 | 0.00 | 0.00 | 0.00 | 62 | 1011.9 |
| 20260508003739 | 14 | 315 | 1.6 | 1.6 | 0.00 | 0.00 | 0.00 | 61 | 1011.9 |
| 20260508003319 | 14 | 315 | 1.6 | 1.6 | 0.00 | 0.00 | 0.00 | 61 | 1011.9 |
| 20260508002737 | 14 | 0.0 | 1.6 | 0.00 | 0.00 | 0.00 | 60 | 1011.8 | |
| 20260508002236 | 14 | 0.0 | 1.6 | 0.00 | 0.00 | 0.00 | 60 | 1011.8 | |
| 20260508001835 | 15 | 315 | 1.6 | 3.2 | 0.00 | 0.00 | 0.00 | 59 | 1011.8 |
| 20260508001257 | 15 | 315 | 1.6 | 3.2 | 0.00 | 0.00 | 0.00 | 59 | 1011.8 |
| 20260508000732 | 15 | 315 | 1.6 | 3.2 | 0.00 | 0.00 | 0.00 | 60 | 1011.7 |
| 20260508000253 | 15 | 315 | 1.6 | 3.2 | 0.00 | 0.00 | 0.00 | 60 | 1011.7 |
| 20260507235811 | 15 | 309 | 1.6 | 3.2 | 0.00 | 0.00 | 0.00 | 60 | 1011.5 |
| 20260507235232 | 15 | 309 | 1.6 | 3.2 | 0.00 | 0.00 | 0.00 | 60 | 1011.5 |
| 20260507234728 | 15 | 327 | 1.6 | 4.8 | 0.00 | 0.00 | 0.00 | 60 | 1011.4 |
| 20260507234229 | 15 | 327 | 1.6 | 4.8 | 0.00 | 0.00 | 0.00 | 60 | 1011.4 |
| 20260507233727 | 15 | 310 | 1.6 | 6.4 | 0.00 | 0.00 | 0.00 | 60 | 1011.2 |
| 20260507233247 | 15 | 310 | 1.6 | 6.4 | 0.00 | 0.00 | 0.00 | 60 | 1011.2 |
| 20260507232726 | 15 | 329 | 1.6 | 6.4 | 0.00 | 0.00 | 0.00 | 59 | 1010.9 |
| 20260507232224 | 15 | 329 | 1.6 | 6.4 | 0.00 | 0.00 | 0.00 | 59 | 1010.9 |
| 20260507231724 | 16 | 323 | 1.6 | 4.8 | 0.00 | 0.00 | 0.00 | 59 | 1010.9 |
| 20260507231222 | 16 | 323 | 1.6 | 4.8 | 0.00 | 0.00 | 0.00 | 59 | 1010.9 |
| 20260507230722 | 16 | 334 | 1.6 | 3.2 | 0.00 | 0.00 | 0.00 | 62 | 1010.8 |
| 20260507230220 | 16 | 334 | 1.6 | 3.2 | 0.00 | 0.00 | 0.00 | 62 | 1010.8 |
| 20260507225720 | 16 | 315 | 1.6 | 4.8 | 0.00 | 0.00 | 0.00 | 61 | 1010.6 |
| 20260507225218 | 16 | 315 | 1.6 | 4.8 | 0.00 | 0.00 | 0.00 | 61 | 1010.6 |
| 20260507224718 | 16 | 319 | 1.6 | 4.8 | 0.00 | 0.00 | 0.00 | 62 | 1010.5 |
| 20260507224217 | 16 | 319 | 1.6 | 4.8 | 0.00 | 0.00 | 0.00 | 62 | 1010.5 |
| 20260507223716 | 16 | 315 | 1.6 | 6.4 | 0.00 | 0.00 | 0.00 | 62 | 1010.4 |
| 20260507223213 | 16 | 315 | 1.6 | 6.4 | 0.00 | 0.00 | 0.00 | 62 | 1010.4 |
| 20260507222734 | 17 | 336 | 1.6 | 4.8 | 0.00 | 0.00 | 0.00 | 64 | 1010.2 |
| 20260507222211 | 17 | 336 | 1.6 | 4.8 | 0.00 | 0.00 | 0.00 | 64 | 1010.2 |
| 20260507221712 | 16 | 333 | 1.6 | 3.2 | 0.00 | 0.00 | 0.00 | 67 | 1010.1 |
| 20260507221211 | 16 | 333 | 1.6 | 3.2 | 0.00 | 0.00 | 0.00 | 67 | 1010.1 |
| 20260507220710 | 16 | 270 | 1.6 | 3.2 | 0.00 | 0.00 | 0.00 | 69 | 1010.1 |
| 20260507220208 | 16 | 270 | 1.6 | 3.2 | 0.00 | 0.00 | 0.00 | 69 | 1010.1 |
| 20260507215728 | 17 | 0.0 | 1.6 | 0.00 | 0.00 | 0.00 | 68 | 1010.0 | |
| 20260507215207 | 17 | 0.0 | 1.6 | 0.00 | 0.00 | 0.00 | 68 | 1010.0 | |
| 20260507214704 | 17 | 240 | 1.6 | 3.2 | 0.00 | 0.00 | 0.00 | 67 | 1010.0 |
| 20260507214205 | 17 | 240 | 1.6 | 3.2 | 0.00 | 0.00 | 0.00 | 67 | 1010.0 |
| 20260507213702 | 17 | 270 | 1.6 | 1.6 | 0.00 | 0.00 | 0.00 | 68 | 1010.1 |
| 20260507213204 | 17 | 270 | 1.6 | 1.6 | 0.00 | 0.00 | 0.00 | 68 | 1010.1 |
| 20260507212721 | 17 | 303 | 1.6 | 3.2 | 0.00 | 0.00 | 0.00 | 66 | 1010.1 |
| 20260507212201 | 17 | 303 | 1.6 | 3.2 | 0.00 | 0.00 | 0.00 | 66 | 1010.1 |
| 20260507211659 | 18 | 270 | 1.6 | 3.2 | 0.00 | 0.00 | 0.00 | 65 | 1010.0 |
| 20260507211158 | 18 | 270 | 1.6 | 3.2 | 0.00 | 0.00 | 0.00 | 65 | 1010.0 |
| 20260507210659 | 19 | 270 | 1.6 | 4.8 | 0.00 | 0.00 | 0.00 | 67 | 1010.0 |
| 20260507210156 | 19 | 270 | 1.6 | 4.8 | 0.00 | 0.00 | 0.00 | 67 | 1010.0 |
| 20260507205717 | 18 | 270 | 1.6 | 6.4 | 0.00 | 0.00 | 0.00 | 68 | 1009.8 |
| 20260507205153 | 18 | 270 | 1.6 | 6.4 | 0.00 | 0.00 | 0.00 | 68 | 1009.8 |
| 20260507204653 | 17 | 192 | 1.6 | 4.8 | 0.00 | 0.00 | 0.00 | 72 | 1009.8 |
| 20260507204152 | 17 | 192 | 1.6 | 4.8 | 0.00 | 0.00 | 0.00 | 72 | 1009.8 |
| 20260507203651 | 16 | 153 | 1.6 | 4.8 | 0.00 | 0.00 | 0.00 | 72 | 1009.9 |
| 20260507203149 | 16 | 153 | 1.6 | 4.8 | 0.00 | 0.00 | 0.00 | 72 | 1009.9 |
| 20260507202649 | 16 | 185 | 1.6 | 4.8 | 0.00 | 0.00 | 0.00 | 70 | 1009.9 |
| 20260507202147 | 16 | 185 | 1.6 | 4.8 | 0.00 | 0.00 | 0.00 | 70 | 1009.9 |
| 20260507201646 | 15 | 122 | 1.6 | 6.4 | 0.00 | 0.00 | 0.00 | 74 | 1010.1 |
| 20260507201145 | 15 | 122 | 1.6 | 6.4 | 0.00 | 0.00 | 0.00 | 74 | 1010.1 |
| 20260507200643 | 15 | 135 | 1.6 | 3.2 | 0.00 | 0.00 | 0.00 | 74 | 1010.4 |
| 20260507200145 | 15 | 135 | 1.6 | 3.2 | 0.00 | 0.00 | 0.00 | 74 | 1010.4 |
| 20260507195642 | 14 | 123 | 1.6 | 3.2 | 0.00 | 0.00 | 0.00 | 74 | 1010.8 |
| 20260507195143 | 14 | 123 | 1.6 | 3.2 | 0.00 | 0.00 | 0.00 | 74 | 1010.8 |
| 20260507194640 | 14 | 90 | 1.6 | 3.2 | 0.00 | 0.00 | 0.00 | 75 | 1011.1 |
| 20260507194139 | 14 | 90 | 1.6 | 3.2 | 0.00 | 0.00 | 0.00 | 75 | 1011.1 |
| 20260507193640 | 14 | 135 | 1.6 | 1.6 | 0.00 | 0.00 | 0.00 | 74 | 1011.2 |
| 20260507193136 | 14 | 135 | 1.6 | 1.6 | 0.00 | 0.00 | 0.00 | 74 | 1011.2 |
| 20260507192636 | 14 | 45 | 1.6 | 4.8 | 0.00 | 0.00 | 0.00 | 75 | 1011.3 |
| 20260507192137 | 14 | 45 | 1.6 | 4.8 | 0.00 | 0.00 | 0.00 | 75 | 1011.3 |
| 20260507191636 | 14 | 14 | 1.6 | 3.2 | 0.00 | 0.00 | 0.00 | 76 | 1011.2 |
| 20260507191135 | 14 | 14 | 1.6 | 3.2 | 0.00 | 0.00 | 0.00 | 76 | 1011.2 |
| 20260507190653 | 14 | 42 | 1.6 | 6.4 | 0.00 | 0.00 | 0.00 | 76 | 1011.4 |
| 20260507190131 | 14 | 42 | 1.6 | 6.4 | 0.00 | 0.00 | 0.00 | 76 | 1011.4 |
| 20260507185631 | 13 | 16 | 1.6 | 4.8 | 0.00 | 0.00 | 0.00 | 77 | 1011.6 |
| 20260507185130 | 13 | 16 | 1.6 | 4.8 | 0.00 | 0.00 | 0.00 | 77 | 1011.6 |
| 20260507184628 | 13 | 49 | 1.6 | 6.4 | 0.00 | 0.00 | 0.00 | 78 | 1011.5 |
| 20260507184128 | 13 | 49 | 1.6 | 6.4 | 0.00 | 0.00 | 0.00 | 78 | 1011.5 |
| 20260507183646 | 13 | 42 | 1.6 | 6.4 | 0.00 | 0.00 | 0.00 | 78 | 1011.6 |
| 20260507183127 | 13 | 42 | 1.6 | 6.4 | 0.00 | 0.00 | 0.00 | 78 | 1011.6 |
| 20260507182624 | 13 | 45 | 1.6 | 6.4 | 0.00 | 0.00 | 0.00 | 79 | 1011.3 |
| 20260507182123 | 13 | 45 | 1.6 | 6.4 | 0.00 | 0.00 | 0.00 | 79 | 1011.3 |
| 20260507181704 | 13 | 18 | 1.6 | 3.2 | 0.00 | 0.00 | 0.00 | 79 | 1011.5 |
| 20260507181144 | 13 | 18 | 1.6 | 3.2 | 0.00 | 0.00 | 0.00 | 79 | 1011.5 |
| 20260507180621 | 13 | 18 | 1.6 | 1.6 | 0.00 | 0.00 | 0.00 | 80 | 1011.5 |
| 20260507180139 | 13 | 18 | 1.6 | 1.6 | 0.00 | 0.00 | 0.00 | 80 | 1011.5 |
| 20260507175619 | 13 | 38 | 1.6 | 4.8 | 0.00 | 0.00 | 0.00 | 79 | 1011.4 |
| 20260507175118 | 13 | 38 | 1.6 | 4.8 | 0.00 | 0.00 | 0.00 | 79 | 1011.4 |
| 20260507174636 | 13 | 2 | 1.6 | 1.6 | 0.00 | 0.00 | 0.00 | 78 | 1011.6 |
| 20260507174135 | 13 | 2 | 1.6 | 1.6 | 0.00 | 0.00 | 0.00 | 78 | 1011.6 |
| 20260507173613 | 13 | 18 | 1.6 | 1.6 | 0.00 | 0.00 | 0.00 | 77 | 1011.5 |
| 20260507173112 | 13 | 18 | 1.6 | 1.6 | 0.00 | 0.00 | 0.00 | 77 | 1011.5 |
| 20260507172634 | 13 | 8 | 1.6 | 4.8 | 0.00 | 0.00 | 0.00 | 75 | 1011.4 |
| 20260507172111 | 13 | 8 | 1.6 | 4.8 | 0.00 | 0.00 | 0.00 | 75 | 1011.4 |
| 20260507171611 | 13 | 4 | 1.6 | 3.2 | 0.00 | 0.00 | 0.00 | 75 | 1011.7 |
| 20260507171109 | 13 | 4 | 1.6 | 3.2 | 0.00 | 0.00 | 0.00 | 75 | 1011.7 |
| 20260507170628 | 13 | 352 | 1.6 | 6.4 | 0.00 | 0.00 | 0.00 | 74 | 1011.6 |
| 20260507170108 | 13 | 352 | 1.6 | 6.4 | 0.00 | 0.00 | 0.00 | 74 | 1011.6 |
| 20260507165607 | 13 | 15 | 1.6 | 6.4 | 0.00 | 0.00 | 0.00 | 75 | 1011.5 |
| 20260507165104 | 13 | 15 | 1.6 | 6.4 | 0.00 | 0.00 | 0.00 | 75 | 1011.5 |
| 20260507164624 | 13 | 2 | 1.6 | 1.6 | 0.00 | 0.00 | 0.00 | 75 | 1011.5 |
| 20260507164103 | 13 | 2 | 1.6 | 1.6 | 0.00 | 0.00 | 0.00 | 75 | 1011.5 |
| 20260507163602 | 14 | 356 | 1.6 | 3.2 | 0.00 | 0.00 | 0.00 | 75 | 1011.5 |
| 20260507163101 | 14 | 356 | 1.6 | 3.2 | 0.00 | 0.00 | 0.00 | 75 | 1011.5 |
| 20260507162601 | 14 | 32 | 1.6 | 6.4 | 0.00 | 0.00 | 0.00 | 75 | 1011.6 |
| 20260507162100 | 14 | 32 | 1.6 | 6.4 | 0.00 | 0.00 | 0.00 | 75 | 1011.6 |
| 20260507161600 | 14 | 40 | 1.6 | 6.4 | 0.00 | 0.00 | 0.00 | 75 | 1011.6 |
| 20260507161057 | 14 | 40 | 1.6 | 6.4 | 0.00 | 0.00 | 0.00 | 75 | 1011.6 |
| 20260507160558 | 14 | 0 | 1.6 | 4.8 | 0.00 | 0.00 | 0.00 | 75 | 1011.8 |
| 20260507160056 | 14 | 0 | 1.6 | 4.8 | 0.00 | 0.00 | 0.00 | 75 | 1011.8 |
| 20260507155555 | 14 | 22 | 1.6 | 6.4 | 0.00 | 0.00 | 0.00 | 75 | 1012.0 |
| 20260507155053 | 14 | 22 | 1.6 | 6.4 | 0.00 | 0.00 | 0.00 | 75 | 1012.0 |
| 20260507154612 | 14 | 22 | 1.6 | 6.4 | 0.00 | 0.00 | 0.00 | 75 | 1012.0 |
| 20260507154051 | 14 | 6 | 1.6 | 4.8 | 0.00 | 0.00 | 0.00 | 75 | 1011.9 |
| 20260507153550 | 14 | 6 | 1.6 | 4.8 | 0.00 | 0.00 | 0.00 | 75 | 1011.9 |
| 20260507153049 | 14 | 22 | 1.6 | 8.0 | 0.00 | 0.00 | 0.00 | 75 | 1011.9 |
| 20260507152611 | 14 | 22 | 1.6 | 8.0 | 0.00 | 0.00 | 0.00 | 75 | 1011.9 |
| 20260507152108 | 14 | 31 | 1.6 | 4.8 | 0.00 | 0.00 | 0.00 | 75 | 1011.8 |
| 20260507151546 | 14 | 31 | 1.6 | 4.8 | 0.00 | 0.00 | 0.00 | 75 | 1011.8 |
| 20260507151045 | 15 | 5 | 1.6 | 4.8 | 0.00 | 0.00 | 0.00 | 75 | 1011.7 |
| 20260507150544 | 15 | 5 | 1.6 | 4.8 | 0.00 | 0.00 | 0.00 | 75 | 1011.7 |
| 20260507150044 | 15 | 6 | 1.6 | 3.2 | 0.00 | 0.00 | 0.00 | 76 | 1011.6 |
| 20260507145542 | 15 | 6 | 1.6 | 3.2 | 0.00 | 0.00 | 0.00 | 76 | 1011.6 |
| 20260507145041 | 15 | 18 | 1.6 | 6.4 | 0.00 | 0.00 | 0.00 | 76 | 1011.6 |
| 20260507144540 | 15 | 18 | 1.6 | 6.4 | 0.00 | 0.00 | 0.00 | 76 | 1011.6 |
| 20260507144040 | 15 | 11 | 1.6 | 3.2 | 0.00 | 0.00 | 0.00 | 77 | 1011.5 |
| 20260507143540 | 15 | 11 | 1.6 | 3.2 | 0.00 | 0.00 | 0.00 | 77 | 1011.5 |
| 20260507143038 | 15 | 7 | 1.6 | 3.2 | 0.00 | 0.00 | 0.00 | 77 | 1011.5 |
| 20260507142536 | 15 | 7 | 1.6 | 3.2 | 0.00 | 0.00 | 0.00 | 77 | 1011.5 |
| 20260507142035 | 15 | 4 | 1.6 | 3.2 | 0.00 | 0.00 | 0.00 | 78 | 1011.6 |
| 20260507141555 | 15 | 4 | 1.6 | 3.2 | 0.00 | 0.00 | 0.00 | 78 | 1011.6 |
| 20260507141054 | 15 | 0 | 1.6 | 3.2 | 0.00 | 0.00 | 0.00 | 80 | 1011.3 |
| 20260507140533 | 15 | 0 | 1.6 | 3.2 | 0.00 | 0.00 | 0.00 | 80 | 1011.3 |
| 20260507140031 | 15 | 5 | 1.6 | 3.2 | 0.00 | 0.00 | 0.00 | 80 | 1011.4 |
| 20260507135530 | 15 | 5 | 1.6 | 3.2 | 0.00 | 0.00 | 0.00 | 80 | 1011.4 |
| 20260507135029 | 15 | 3 | 1.6 | 1.6 | 0.00 | 0.00 | 0.00 | 80 | 1012.0 |
| 20260507134528 | 15 | 3 | 1.6 | 1.6 | 0.00 | 0.00 | 0.00 | 80 | 1012.0 |
| 20260507134028 | 15 | 0 | 1.6 | 3.2 | 0.00 | 0.00 | 0.00 | 80 | 1011.9 |
| 20260507133527 | 15 | 0 | 1.6 | 3.2 | 0.00 | 0.00 | 0.00 | 80 | 1011.9 |
| 20260507133025 | 15 | 356 | 1.6 | 3.2 | 0.00 | 0.00 | 0.00 | 80 | 1011.8 |
| 20260507132524 | 15 | 356 | 1.6 | 3.2 | 0.00 | 0.00 | 0.00 | 80 | 1011.8 |
| 20260507132043 | 15 | 353 | 1.6 | 3.2 | 0.00 | 0.00 | 0.00 | 81 | 1012.0 |
| 20260507131522 | 15 | 353 | 1.6 | 3.2 | 0.00 | 0.00 | 0.00 | 81 | 1012.0 |
| 20260507131021 | 15 | 354 | 1.6 | 3.2 | 0.00 | 0.00 | 0.00 | 81 | 1011.8 |
| 20260507130520 | 15 | 354 | 1.6 | 3.2 | 0.00 | 0.00 | 0.00 | 81 | 1011.8 |
| 20260507130019 | 15 | 352 | 1.6 | 3.2 | 0.00 | 0.00 | 0.00 | 82 | 1011.7 |
| 20260507125518 | 15 | 352 | 1.6 | 3.2 | 0.00 | 0.00 | 0.00 | 82 | 1011.7 |
| 20260507125020 | 15 | 2 | 1.6 | 3.2 | 0.00 | 0.00 | 0.00 | 82 | 1011.8 |
| 20260507124517 | 15 | 2 | 1.6 | 3.2 | 0.00 | 0.00 | 0.00 | 82 | 1011.8 |
| 20260507124015 | 15 | 2 | 1.6 | 3.2 | 0.00 | 0.00 | 0.00 | 82 | 1011.8 |
| 20260507123514 | 15 | 2 | 1.6 | 3.2 | 0.00 | 0.00 | 0.00 | 82 | 1011.8 |
| 20260507123013 | 15 | 3 | 1.6 | 3.2 | 0.00 | 0.00 | 0.00 | 82 | 1011.9 |
| 20260507122513 | 15 | 3 | 1.6 | 3.2 | 0.00 | 0.00 | 0.00 | 82 | 1011.9 |
| 20260507122010 | 15 | 355 | 1.6 | 4.8 | 0.00 | 0.00 | 0.00 | 82 | 1011.6 |
| 20260507121511 | 15 | 355 | 1.6 | 4.8 | 0.00 | 0.00 | 0.00 | 82 | 1011.6 |
| 20260507121009 | 15 | 0 | 1.6 | 4.8 | 0.00 | 0.00 | 0.00 | 83 | 1011.8 |
| 20260507120508 | 15 | 0 | 1.6 | 4.8 | 0.00 | 0.00 | 0.00 | 83 | 1011.8 |
| 20260507120027 | 15 | 5 | 1.6 | 3.2 | 0.00 | 0.00 | 0.00 | 83 | 1011.7 |
| 20260507115508 | 15 | 5 | 1.6 | 3.2 | 0.00 | 0.00 | 0.00 | 83 | 1011.7 |
| 20260507115005 | 15 | 18 | 1.6 | 3.2 | 0.00 | 0.00 | 0.00 | 83 | 1011.6 |
| 20260507114504 | 15 | 18 | 1.6 | 3.2 | 0.00 | 0.00 | 0.00 | 83 | 1011.6 |
| 20260507114004 | 15 | 55 | 1.6 | 3.2 | 0.00 | 0.00 | 0.00 | 83 | 1011.4 |
| 20260507113502 | 15 | 55 | 1.6 | 3.2 | 0.00 | 0.00 | 0.00 | 83 | 1011.4 |
| 20260507113023 | 15 | 333 | 1.6 | 3.2 | 0.00 | 0.00 | 0.00 | 83 | 1011.3 |
| 20260507112500 | 15 | 333 | 1.6 | 3.2 | 0.00 | 0.00 | 0.00 | 83 | 1011.3 |
| 20260507111959 | 14 | 6 | 1.6 | 1.6 | 0.00 | 0.00 | 0.00 | 83 | 1011.3 |
| 20260507111459 | 14 | 6 | 1.6 | 1.6 | 0.00 | 0.00 | 0.00 | 83 | 1011.3 |
| 20260507110956 | 15 | 16 | 1.6 | 1.6 | 0.00 | 0.00 | 0.00 | 83 | 1011.2 |
| 20260507110456 | 15 | 16 | 1.6 | 1.6 | 0.00 | 0.00 | 0.00 | 83 | 1011.2 |
| 20260507105956 | 15 | 0 | 1.6 | 1.6 | 0.00 | 0.00 | 0.00 | 83 | 1011.1 |
| 20260507105515 | 15 | 0 | 1.6 | 1.6 | 0.00 | 0.00 | 0.00 | 83 | 1011.1 |
| 20260507104953 | 15 | 28 | 1.6 | 1.6 | 0.00 | 0.00 | 0.00 | 82 | 1010.9 |
| 20260507104454 | 15 | 28 | 1.6 | 1.6 | 0.00 | 0.00 | 0.00 | 82 | 1010.9 |
| 20260507103952 | 15 | 0 | 1.6 | 4.8 | 0.00 | 0.00 | 0.00 | 82 | 1010.8 |
| 20260507103451 | 15 | 0 | 1.6 | 4.8 | 0.00 | 0.00 | 0.00 | 82 | 1010.8 |
| 20260507102949 | 15 | 2 | 1.6 | 3.2 | 0.00 | 0.00 | 0.00 | 82 | 1010.9 |
| 20260507102448 | 15 | 2 | 1.6 | 3.2 | 0.00 | 0.00 | 0.00 | 82 | 1010.9 |
| 20260507102007 | 15 | 355 | 1.6 | 3.2 | 0.00 | 0.00 | 0.00 | 82 | 1010.9 |
| 20260507101446 | 15 | 355 | 1.6 | 3.2 | 0.00 | 0.00 | 0.00 | 82 | 1010.9 |
| 20260507100945 | 15 | 357 | 1.6 | 3.2 | 0.00 | 0.00 | 0.00 | 82 | 1011.0 |
| 20260507100446 | 15 | 357 | 1.6 | 3.2 | 0.00 | 0.00 | 0.00 | 82 | 1011.0 |
| 20260507095942 | 15 | 0 | 1.6 | 4.8 | 0.00 | 0.00 | 0.00 | 82 | 1011.2 |
| 20260507095442 | 15 | 0 | 1.6 | 4.8 | 0.00 | 0.00 | 0.00 | 82 | 1011.2 |
| 20260507095001 | 15 | 7 | 1.6 | 3.2 | 0.00 | 0.00 | 0.00 | 83 | 1010.8 |
| 20260507094441 | 15 | 7 | 1.6 | 3.2 | 0.00 | 0.00 | 0.00 | 83 | 1010.8 |
| 20260507093939 | 15 | 4 | 1.6 | 3.2 | 0.00 | 0.00 | 0.00 | 84 | 1010.9 |
| 20260507093439 | 15 | 4 | 1.6 | 3.2 | 0.00 | 0.00 | 0.00 | 84 | 1010.9 |
| 20260507092957 | 15 | 6 | 1.6 | 4.8 | 0.00 | 0.00 | 0.00 | 84 | 1011.0 |
| 20260507092456 | 15 | 6 | 1.6 | 4.8 | 0.00 | 0.00 | 0.00 | 84 | 1011.0 |
| 20260507091935 | 15 | 2 | 1.6 | 3.2 | 0.00 | 0.00 | 0.00 | 85 | 1010.5 |
| 20260507091434 | 15 | 2 | 1.6 | 3.2 | 0.00 | 0.00 | 0.00 | 85 | 1010.5 |
| 20260507090935 | 16 | 38 | 3.2 | 6.4 | 0.00 | 0.00 | 0.00 | 86 | 1010.0 |
| 20260507090432 | 16 | 38 | 3.2 | 6.4 | 0.00 | 0.00 | 0.00 | 86 | 1010.0 |
| 20260507085931 | 16 | 45 | 3.2 | 6.4 | 0.00 | 0.00 | 0.00 | 87 | 1010.4 |
| 20260507085450 | 16 | 45 | 3.2 | 6.4 | 0.00 | 0.00 | 0.00 | 87 | 1010.4 |
| 20260507084928 | 16 | 36 | 1.6 | 4.8 | 0.00 | 0.00 | 0.00 | 87 | 1010.6 |
| 20260507084428 | 16 | 36 | 1.6 | 4.8 | 0.00 | 0.00 | 0.00 | 87 | 1010.6 |
| 20260507083926 | 16 | 32 | 1.6 | 3.2 | 0.00 | 0.00 | 0.00 | 87 | 1011.0 |
| 20260507083426 | 16 | 32 | 1.6 | 3.2 | 0.00 | 0.00 | 0.00 | 87 | 1011.0 |
| 20260507082925 | 16 | 90 | 1.6 | 3.2 | 0.00 | 0.00 | 0.00 | 87 | 1010.8 |
| 20260507082444 | 16 | 90 | 1.6 | 3.2 | 0.00 | 0.00 | 0.00 | 87 | 1010.8 |
| 20260507081943 | 16 | 20 | 1.6 | 1.6 | 0.00 | 0.00 | 0.00 | 87 | 1010.6 |
| 20260507081422 | 16 | 20 | 1.6 | 1.6 | 0.00 | 0.00 | 0.00 | 87 | 1010.6 |
| 20260507080941 | 16 | 45 | 1.6 | 1.6 | 0.00 | 0.00 | 0.00 | 87 | 1010.9 |
| 20260507080420 | 16 | 45 | 1.6 | 1.6 | 0.00 | 0.00 | 0.00 | 87 | 1010.9 |
| 20260507075919 | 16 | 90 | 1.6 | 1.6 | 0.00 | 0.00 | 0.00 | 87 | 1010.9 |
| 20260507075417 | 16 | 90 | 1.6 | 1.6 | 0.00 | 0.00 | 0.00 | 87 | 1010.9 |
| 20260507074917 | 16 | 53 | 1.6 | 1.6 | 0.00 | 0.00 | 0.00 | 87 | 1011.0 |
| 20260507074417 | 16 | 53 | 1.6 | 1.6 | 0.00 | 0.00 | 0.00 | 87 | 1011.0 |
| 20260507073917 | 16 | 203 | 1.6 | 1.6 | 0.00 | 0.00 | 0.00 | 87 | 1011.2 |
| 20260507073414 | 16 | 203 | 1.6 | 1.6 | 0.00 | 0.00 | 0.00 | 87 | 1011.2 |
| 20260507072914 | 16 | 135 | 1.6 | 1.6 | 0.00 | 0.00 | 0.00 | 87 | 1010.9 |
| 20260507072411 | 16 | 135 | 1.6 | 1.6 | 0.00 | 0.00 | 0.00 | 87 | 1010.9 |
| 20260507071911 | 16 | 90 | 1.6 | 1.6 | 0.00 | 0.00 | 0.00 | 87 | 1010.8 |
| 20260507071411 | 16 | 90 | 1.6 | 1.6 | 0.00 | 0.00 | 0.00 | 87 | 1010.8 |
| 20260507070909 | 16 | 161 | 1.6 | 3.2 | 0.00 | 0.00 | 0.00 | 87 | 1010.9 |
| 20260507070428 | 16 | 161 | 1.6 | 3.2 | 0.00 | 0.00 | 0.00 | 87 | 1010.9 |
| 20260507065929 | 16 | 45 | 1.6 | 4.8 | 0.00 | 0.00 | 0.00 | 86 | 1010.4 |
| 20260507065405 | 16 | 45 | 1.6 | 4.8 | 0.00 | 0.00 | 0.00 | 86 | 1010.4 |
| 20260507064905 | 16 | 18 | 1.6 | 1.6 | 0.00 | 0.00 | 0.00 | 86 | 1010.9 |
| 20260507064403 | 16 | 18 | 1.6 | 1.6 | 0.00 | 0.00 | 0.00 | 86 | 1010.9 |
| 20260507063922 | 16 | 135 | 1.6 | 1.6 | 0.00 | 0.00 | 0.00 | 86 | 1010.5 |